Lumberton, NC

6:25 PM EDT on April 21, 2018 (GMT -0400)
Lumberton Municipal

Weather History for KLBT - February, 2013

Change the Weather History Date:

Sunday, February 24, 2013

  Actual Average Record
Temperature  
Mean Temperature 52 °F 49 °F  
Max Temperature 64 °F 60 °F 82 °F (1975)
Min Temperature 39 °F 37 °F 18 °F (1978)
Degree Days  
Heating Degree Days 13 16  
Month to date heating degree days 480 448  
Since 1 July heating degree days 2004 2167  
Cooling Degree Days 0 0  
Month to date cooling degree days 0 0  
Year to date cooling degree days 4 1  
Growing Degree Days 2 (Base 50)    
Moisture  
Dew Point 44 °F    
Average Humidity 70    
Maximum Humidity 100    
Minimum Humidity 40    
Precipitation  
Precipitation 0.02 in 0.11 in 1.58 in (1979)
Month to date precipitation 2.93 2.46  
Year to date precipitation 4.41 5.43  
Sea Level Pressure  
Sea Level Pressure 29.90 in    
Wind  
Wind Speed 6 mph (WNW)    
Max Wind Speed 14 mph    
Max Gust Speed 23 mph    
Visibility 5 miles    
Events Rain    
T = Trace of Precipitation, MM = Missing Value Source: NWS Daily Summary

Daily Weather History Graph

Daily Weather History Graph

Search for Another Location

Airport or City:

Astronomy

Feb. 24, 2013 Rise Set
Actual Time 6:51 AM EST 6:08 PM EST
Civil Twilight 6:25 AM EST 6:33 PM EST
Nautical Twilight 5:56 AM EST 7:02 PM EST
Astronomical Twilight 5:27 AM EST 7:31 PM EST
Moon 5:17 PM EST (2/24) 5:46 AM EST (2/24)
Length of Visible Light 12h 07m
Length of Day
11h 16m
Waxing Gibbous, 99% of the Moon is Illuminated
Feb 24
Waxing Gibbous
Feb 25
Full
Mar 4
Last Quarter
Mar 11
New
Mar 19
First Quarter

Hourly Weather History & Observations

Time (EST) Temp. Windchill Dew Point Humidity Pressure Visibility Wind Dir Wind Speed Gust Speed Precip Events Conditions
12:27 AM 46.4 °F 45.2 °F 44.6 °F 93% 29.85 in 1.0 mi West 3.5 mph - N/A   Mist
12:50 AM 46.4 °F 45.2 °F 46.4 °F 100% 29.84 in 1.5 mi WNW 3.5 mph - N/A   Overcast
12:54 AM 46.0 °F 44.8 °F 46.0 °F 100% 29.84 in 1.5 mi WNW 3.5 mph - N/A   Overcast
1:20 AM 46.4 °F 44.3 °F 44.6 °F 93% 29.83 in 0.8 mi WNW 4.6 mph - N/A   Overcast
1:40 AM 46.4 °F 44.3 °F 44.6 °F 93% 29.83 in 1.2 mi NW 4.6 mph - N/A   Overcast
1:43 AM 46.4 °F 45.2 °F 44.6 °F 93% 29.83 in 2.5 mi WNW 3.5 mph - N/A   Overcast
1:51 AM 44.6 °F 43.1 °F 44.6 °F 100% 29.82 in 4.0 mi West 3.5 mph - N/A   Overcast
1:54 AM 45.0 °F 43.5 °F 45.0 °F 100% 29.83 in 5.0 mi West 3.5 mph - N/A   Overcast
2:41 AM 44.6 °F - 44.6 °F 100% 29.81 in 2.0 mi Calm Calm - N/A   Overcast
2:54 AM 45.0 °F 43.5 °F 45.0 °F 100% 29.83 in 3.0 mi West 3.5 mph - N/A   Overcast
3:09 AM 44.6 °F 40.2 °F 44.6 °F 100% 29.84 in 2.0 mi West 8.1 mph - 0.00 in Rain Light Rain
3:36 AM 44.6 °F 40.7 °F 44.6 °F 100% 29.83 in 3.0 mi West 6.9 mph - 0.01 in Rain Light Rain
3:54 AM 45.0 °F 40.6 °F 44.1 °F 97% 29.83 in 3.0 mi West 8.1 mph - 0.01 in Rain Light Rain
4:54 AM 45.0 °F 41.2 °F 44.1 °F 97% 29.83 in 6.0 mi WNW 6.9 mph - 0.00 in   Overcast
5:31 AM 44.6 °F 40.2 °F 44.6 °F 100% 29.85 in 5.0 mi WNW 8.1 mph - 0.01 in   Overcast
5:54 AM 45.0 °F 40.6 °F 44.1 °F 97% 29.86 in 3.0 mi WNW 8.1 mph - 0.01 in   Overcast
6:05 AM 44.6 °F 41.4 °F 44.6 °F 100% 29.86 in 2.5 mi WNW 5.8 mph - N/A   Overcast
6:19 AM 44.6 °F 41.4 °F 44.6 °F 100% 29.86 in 3.0 mi West 5.8 mph - N/A   Overcast
6:30 AM 44.6 °F 42.2 °F 44.6 °F 100% 29.86 in 2.5 mi West 4.6 mph - N/A   Overcast
7:02 AM 44.6 °F 41.4 °F 44.6 °F 100% 29.88 in 1.8 mi West 5.8 mph - N/A   Overcast
7:10 AM 46.4 °F 41.9 °F 44.6 °F 93% 29.89 in 1.0 mi WNW 9.2 mph - N/A   Overcast
7:26 AM 46.4 °F 42.4 °F 44.6 °F 93% 29.90 in 1.8 mi West 8.1 mph - N/A   Overcast
7:35 AM 46.4 °F 42.4 °F 44.6 °F 93% 29.91 in 2.5 mi West 8.1 mph - N/A   Overcast
7:50 AM 46.4 °F 41.9 °F 44.6 °F 93% 29.91 in 3.0 mi West 9.2 mph - N/A   Overcast
7:54 AM 46.0 °F 41.4 °F 45.0 °F 96% 29.91 in 3.0 mi West 9.2 mph - N/A   Overcast
8:41 AM 46.4 °F 42.4 °F 44.6 °F 93% 29.94 in 4.0 mi WNW 8.1 mph - N/A   Overcast
8:54 AM 46.9 °F - 45.0 °F 93% 29.95 in 4.0 mi WNW 11.5 mph - N/A   Overcast
9:38 AM 48.2 °F - 46.4 °F 93% 29.96 in 5.0 mi WNW 9.2 mph - N/A   Overcast
9:54 AM 50.0 °F - 46.0 °F 86% 29.96 in 6.0 mi WNW 8.1 mph - N/A   Mostly Cloudy
10:02 AM 50.0 °F - 44.6 °F 82% 29.96 in 6.0 mi WNW 8.1 mph - N/A   Haze
10:14 AM 51.8 °F - 46.4 °F 82% 29.96 in 7.0 mi NW 8.1 mph - N/A   Scattered Clouds
10:54 AM 54.0 °F - 46.9 °F 77% 29.96 in 9.0 mi NNW 6.9 mph - N/A   Partly Cloudy
11:54 AM 57.0 °F - 48.0 °F 72% 29.95 in 10.0 mi West 9.2 mph - N/A   Partly Cloudy
12:54 PM 60.1 °F - 46.9 °F 62% 29.93 in 10.0 mi WNW 8.1 mph - N/A   Clear
1:54 PM 62.1 °F - 45.0 °F 53% 29.91 in 10.0 mi Variable 4.6 mph 16.1 mph N/A   Clear
2:54 PM 64.0 °F - 42.1 °F 45% 29.90 in 10.0 mi WNW 15.0 mph 23.0 mph N/A   Clear
3:54 PM 64.0 °F - 39.9 °F 41% 29.91 in 10.0 mi WNW 6.9 mph - N/A   Clear
4:54 PM 63.0 °F - 39.0 °F 41% 29.91 in 10.0 mi West 9.2 mph - N/A   Clear
5:54 PM 59.0 °F - 37.9 °F 46% 29.92 in 10.0 mi West 6.9 mph - N/A   Clear
6:54 PM 48.9 °F - 43.0 °F 80% 29.96 in 10.0 mi WSW 3.5 mph - N/A   Clear
7:54 PM 48.9 °F - 41.0 °F 74% 29.98 in 10.0 mi Calm Calm - N/A   Clear
8:54 PM 43.0 °F - 41.0 °F 93% 29.98 in 10.0 mi Calm Calm - N/A   Clear
9:54 PM 42.1 °F - 39.9 °F 92% 30.00 in 10.0 mi Calm Calm - N/A   Clear
10:54 PM 41.0 °F - 39.0 °F 93% 30.01 in 10.0 mi Calm Calm - N/A   Clear
11:54 PM 39.9 °F - 37.9 °F 93% 30.01 in 10.0 mi Calm Calm - N/A   Clear